Wind_Speed
4 4 3 3 2 3 2 2 2 1 2 2 2 2 3 5 4 5 5 7 7 7 8 8 9 10 11 11 11 11 11 11 11 11 10 10 10 10 11 11 11 12 12
4 4 3 2 2 2 1 1 2 2 2 2 2 3 3 4 4 5 5 6 7 7 7 7 8 9 9 10 10 10 10 10 10 10 9 10 10 10 11 11 12 12 12
4 3 3 2 2 1 1 1 1 1 1 1 2 2 2 3 3 4 4 5 6 6 6 6 7 8 8 8 9 10 10 9 9 9 9 9 10 10 11 11 12 12 12
4 4 3 2 2 2 2 1 1 1 0 1 1 1 1 1 2 3 3 3 4 4 5 5 5 6 7 7 8 8 9 8 8 9 9 9 10 10 11 11 12 11 12
4 4 3 2 2 2 2 1 1 1 0 1 1 1 1 2 2 2 3 3 3 3 4 5 5 6 6 7 8 8 8 8 8 8 9 9 9 9 10 11 12 11 11
3 3 3 2 1 1 1 1 1 1 1 0 1 2 2 2 2 2 3 3 3 3 3 5 5 6 6 7 7 7 7 8 8 8 9 9 9 10 10 11 11 11 11
3 2 2 2 1 1 2 1 0 1 1 0 1 2 2 2 2 3 3 2 2 2 3 4 5 5 6 6 6 7 7 7 8 8 9 9 9 10 10 11 11 11 11
2 2 1 1 1 1 1 1 0 0 1 1 1 2 2 2 2 2 2 2 2 2 3 4 5 5 5 6 6 7 7 7 7 8 9 9 9 10 10 10 11 11 11
2 1 1 1 1 1 1 0 1 1 1 1 1 1 2 2 2 2 2 3 3 3 3 4 5 5 6 6 6 6 6 7 7 7 8 8 9 10 10 10 10 11 11
1 1 0 0 1 1 0 1 1 1 1 0 1 1 2 2 2 3 3 3 3 4 4 5 5 5 5 6 7 7 7 7 7 7 7 8 9 9 8 9 10 11 11
1 1 0 0 0 1 1 1 1 1 1 1 1 2 2 3 3 2 3 3 4 5 5 5 6 5 5 6 6 6 6 6 6 6 6 7 8 8 8 8 9 10 12
1 0 0 1 1 1 1 1 1 1 1 1 2 2 2 3 3 3 3 4 5 5 5 5 6 6 6 6 6 5 5 6 6 6 6 7 8 9 9 10 10 12 13
1 1 1 1 1 1 1 1 1 1 1 2 2 2 2 3 3 3 4 4 5 5 6 5 6 6 6 6 5 5 6 6 6 7 7 8 8 9 9 10 11 12 13
2 1 0 1 2 2 1 1 0 1 2 2 2 2 2 3 3 3 4 5 5 5 6 6 6 7 7 7 6 6 6 7 7 7 8 8 9 10 10 11 12 12 13
2 2 1 1 2 2 1 1 1 2 2 3 3 3 3 3 4 4 5 6 6 6 6 6 6 6 7 7 7 7 7 7 7 7 9 9 10 11 11 12 12 13 14
4 3 3 2 2 2 2 2 2 3 3 4 4 4 4 4 4 5 5 6 6 6 6 7 7 7 7 8 7 7 8 8 8 9 10 11 11 12 12 13 14 14 15
5 5 4 4 4 4 3 3 3 3 4 4 4 5 5 6 5 6 6 7 7 7 8 8 8 7 8 8 9 9 9 10 10 11 12 12 12 13 13 14 14 15 16
6 6 5 6 5 5 5 5 4 4 4 5 5 5 6 6 6 6 6 7 8 8 8 9 8 8 8 9 10 10 11 11 12 12 13 13 13 14 14 15 16 17 17
7 7 6 6 6 6 6 6 6 5 5 6 6 6 7 7 7 7 7 7 8 9 9 9 10 9 9 10 11 12 12 13 13 13 14 14 15 15 16 17 18 19 19
8 8 7 7 7 7 7 7 7 7 7 7 7 7 7 7 8 8 8 8 9 9 10 10 10 10 10 11 12 12 12 13 13 14 15 15 16 17 18 19 20 21 21
9 9 9 8 8 8 8 9 9 8 8 8 8 8 9 9 10 10 10 10 10 11 11 11 11 12 12 13 13 14 13 14 15 16 16 18 18 19 19 21 21 22 23
11 10 10 10 10 9 10 10 10 10 10 10 10 11 11 11 11 11 12 12 12 12 13 13 13 13 14 14 15 15 15 16 17 18 19 20 20 21 22 23 23 24 25
11 11 11 11 11 11 11 11 11 12 12 12 13 13 13 13 13 13 13 13 13 14 14 14 15 15 16 16 16 16 17 18 18 19 19 21 22 23 23 24 25 26 27
13 13 13 13 13 13 13 13 13 13 13 14 14 14 14 14 15 15 15 15 15 16 15 15 16 16 17 17 17 18 18 19 20 21 22 23 24 25 25 26 27 28 29
14 14 14 14 14 14 14 14 14 14 14 15 15 15 15 15 16 16 16 16 17 16 16 16 16 17 18 18 19 20 21 21 22 22 23 24 25 26 27 29 29 30 31
15 14 15 15 16 16 15 15 15 15 15 15 15 16 16 16 17 17 17 17 17 17 17 18 19 19 20 20 21 22 22 23 24 24 25 26 28 29 29 30 31 32 33
Wind_Direction
329 323 309 290 270 265 260 264 260 255 247 245 248 242 254 255 245 252 253 249 248 249 251 250 250 254 254 254 257 261 262 265 268 266 263 260 260 264 269 274 278 282 285
331 332 317 308 289 289 283 270 266 263 267 256 254 243 250 250 244 251 254 249 245 251 252 250 251 255 257 257 258 262 263 265 267 265 264 263 263 267 271 276 281 284 286
329 335 331 321 307 312 303 289 264 257 260 218 220 227 246 248 252 253 255 253 251 250 247 252 253 257 259 261 263 265 267 267 266 269 265 265 265 268 272 278 283 286 287
322 334 336 335 334 347 355 345 316 272 242 189 199 223 261 275 265 260 262 267 259 251 249 254 256 262 264 267 268 267 269 267 268 268 267 268 269 272 275 280 284 285 287
321 327 340 344 350 350 351 4 359 315 223 207 234 271 294 302 299 265 264 270 266 263 258 257 263 268 270 270 269 268 270 270 269 268 268 272 276 278 280 281 282 286 288
335 335 337 349 1 18 48 54 63 85 135 254 283 294 297 292 281 289 271 267 268 274 270 265 268 274 274 271 274 276 277 273 270 269 272 275 278 282 283 286 287 288 289
359 357 352 354 34 83 89 99 94 72 47 2 304 300 292 294 295 297 276 276 275 284 281 279 277 281 277 279 282 281 283 280 277 274 276 278 281 286 287 287 289 291 291
2 14 27 42 74 88 87 114 109 68 26 334 301 303 305 302 298 297 287 286 286 291 288 287 286 288 290 288 288 285 288 287 284 278 278 282 287 293 292 288 286 288 292
350 9 21 68 94 103 115 144 186 260 310 321 323 316 318 312 312 309 307 310 301 292 291 296 301 296 295 300 300 294 292 289 290 287 286 292 297 299 292 287 288 288 292
329 345 355 68 116 100 106 173 204 224 237 331 317 318 324 320 316 309 303 295 294 296 291 292 299 300 299 298 298 295 291 293 297 293 293 298 302 303 298 296 291 289 292
322 321 281 234 143 98 102 160 205 246 243 284 313 319 331 326 317 308 303 296 297 299 298 297 304 302 301 301 303 298 296 292 300 304 300 300 303 303 304 302 302 298 299
281 41 137 143 131 114 108 166 206 253 292 300 319 315 314 316 311 302 294 295 299 309 315 310 310 308 305 304 305 304 300 294 295 298 297 301 307 307 307 306 307 306 305
235 165 152 163 163 161 146 139 129 278 307 314 323 316 312 311 306 305 303 306 309 313 318 315 316 317 316 314 308 304 299 299 299 298 298 302 306 307 305 307 308 308 307
232 202 179 180 184 195 201 193 261 297 313 324 326 320 315 307 304 313 320 322 321 316 313 311 317 318 321 316 314 308 304 302 303 305 304 304 306 307 309 308 308 309 309
235 236 259 212 209 215 219 229 288 305 311 321 320 313 310 301 304 311 317 325 330 331 328 322 323 326 327 322 314 310 310 306 308 315 314 310 307 307 308 310 309 310 311
246 252 259 257 235 229 234 255 279 294 304 310 315 316 311 303 302 307 312 322 325 328 327 325 320 318 316 316 318 316 316 316 315 315 315 313 312 311 312 312 311 311 311
247 247 257 254 241 244 252 262 274 285 293 305 313 319 313 308 304 306 309 315 321 323 323 321 318 315 311 311 312 312 313 314 312 312 312 314 314 313 313 312 311 311 310
246 248 254 252 248 250 254 259 270 282 287 296 301 306 309 311 311 310 306 310 313 317 318 318 318 315 312 309 309 308 308 309 308 308 309 310 311 311 310 311 311 312 312
248 248 253 256 255 254 255 261 266 274 281 287 293 297 298 304 307 307 308 311 312 314 313 314 315 314 311 308 307 305 305 306 306 307 308 308 308 309 309 310 311 311 310
247 248 253 256 255 256 256 261 266 274 276 281 289 293 296 298 301 305 308 310 312 312 311 312 312 313 312 310 309 306 306 307 306 308 308 307 307 308 309 309 309 309 308
248 254 255 256 257 259 260 261 264 273 277 283 290 294 296 296 298 301 301 303 304 304 306 307 309 311 313 312 311 311 310 310 309 308 308 310 307 308 308 309 306 308 309
249 255 256 256 256 260 264 263 264 271 277 283 288 291 294 295 296 295 296 296 298 300 301 302 304 307 310 312 311 311 312 312 312 311 311 311 310 310 310 308 308 309 309
253 255 255 254 258 260 263 264 266 272 275 279 282 286 289 291 292 292 294 295 296 298 298 301 301 303 305 307 309 309 311 312 311 311 310 309 309 309 308 308 307 307 307
254 254 254 257 261 263 263 264 267 272 276 278 281 285 286 289 289 290 292 293 294 296 298 300 300 301 303 305 306 307 308 309 310 310 310 310 311 311 311 309 308 307 307
254 256 257 257 262 264 264 265 267 270 276 280 283 286 287 289 290 291 292 292 293 294 296 298 298 299 300 301 302 303 304 305 306 307 308 308 309 309 309 308 308 307 306
256 258 260 263 264 263 264 266 270 273 278 281 282 285 287 288 289 292 292 292 292 294 295 297 299 300 301 301 301 302 303 304 305 305 306 307 307 307 307 306 306 306 305
Height
5862 5862 5862 5861 5861 5861 5861 5862 5862 5862 5863 5863 5864 5865 5865 5866 5867 5868 5868 5869 5870 5871 5872 5873 5874 5875 5875 5876 5877 5877 5878 5878 5878 5879 5878 5878 5879 5880 5881 5881 5881 5881 5881
5862 5861 5861 5861 5861 5861 5861 5861 5862 5862 5862 5863 5864 5865 5865 5866 5866 5867 5867 5868 5869 5870 5871 5871 5872 5873 5874 5874 5875 5876 5876 5877 5877 5877 5877 5878 5878 5879 5879 5879 5879 5879 5879
5862 5861 5861 5861 5861 5861 5861 5861 5862 5862 5862 5863 5864 5864 5865 5865 5865 5866 5866 5867 5868 5869 5870 5870 5871 5871 5872 5873 5873 5874 5874 5875 5875 5876 5876 5876 5877 5877 5877 5877 5877 5877 5876
5861 5861 5861 5861 5860 5860 5861 5861 5862 5862 5863 5863 5864 5864 5864 5865 5865 5865 5866 5867 5867 5868 5869 5869 5870 5870 5871 5871 5872 5872 5873 5873 5874 5874 5874 5875 5875 5875 5875 5875 5875 5875 5874
5861 5861 5860 5860 5860 5861 5861 5861 5862 5862 5863 5863 5864 5864 5864 5865 5865 5865 5866 5866 5867 5867 5868 5868 5869 5869 5870 5870 5870 5871 5871 5872 5872 5872 5873 5873 5873 5873 5873 5873 5872 5872 5872
5861 5861 5860 5860 5860 5861 5861 5861 5862 5862 5863 5863 5864 5864 5864 5864 5865 5865 5865 5866 5866 5867 5867 5868 5868 5869 5869 5869 5869 5869 5870 5870 5870 5870 5871 5871 5871 5871 5871 5870 5870 5870 5869
5861 5861 5861 5861 5861 5861 5861 5862 5862 5863 5863 5863 5864 5864 5864 5864 5864 5864 5865 5865 5866 5866 5867 5867 5868 5868 5868 5868 5868 5868 5868 5868 5868 5868 5869 5869 5869 5868 5868 5868 5868 5867 5867
5861 5861 5861 5861 5861 5862 5862 5862 5863 5863 5863 5864 5864 5864 5864 5865 5864 5864 5865 5865 5865 5866 5866 5867 5867 5867 5867 5867 5867 5867 5867 5867 5867 5867 5867 5866 5866 5866 5865 5865 5865 5865 5864
5861 5861 5861 5861 5861 5862 5862 5863 5863 5863 5864 5864 5864 5864 5864 5864 5864 5865 5865 5865 5865 5865 5866 5866 5866 5866 5866 5865 5865 5865 5865 5865 5865 5865 5865 5865 5864 5863 5862 5862 5862 5862 5862
5861 5861 5861 5861 5862 5862 5862 5863 5863 5863 5864 5864 5864 5864 5865 5865 5865 5865 5865 5865 5865 5865 5865 5865 5865 5864 5864 5864 5864 5864 5863 5863 5863 5863 5863 5862 5862 5861 5859 5859 5859 5859 5859
5861 5861 5861 5862 5862 5862 5863 5863 5863 5864 5864 5864 5865 5865 5865 5865 5865 5865 5865 5865 5865 5864 5864 5864 5864 5863 5863 5863 5863 5862 5862 5862 5862 5861 5861 5861 5860 5860 5858 5858 5857 5857 5857
5861 5861 5861 5862 5862 5863 5863 5863 5864 5864 5864 5865 5865 5865 5865 5865 5865 5865 5865 5864 5864 5864 5863 5863 5863 5862 5862 5862 5861 5861 5861 5860 5860 5860 5860 5859 5859 5858 5857 5857 5856 5855 5854
5861 5861 5862 5862 5863 5863 5863 5864 5864 5865 5865 5865 5865 5865 5865 5865 5865 5865 5864 5864 5863 5863 5863 5862 5862 5861 5861 5861 5860 5860 5860 5859 5859 5859 5858 5858 5857 5856 5855 5855 5854 5853 5852
5861 5861 5862 5862 5863 5863 5864 5864 5864 5865 5865 5865 5865 5865 5864 5864 5864 5864 5864 5864 5863 5863 5862 5862 5861 5860 5860 5859 5859 5859 5858 5858 5857 5857 5857 5856 5855 5854 5853 5852 5851 5850 5849
5861 5861 5862 5862 5863 5863 5864 5864 5864 5865 5865 5865 5865 5864 5864 5864 5864 5864 5863 5863 5863 5862 5862 5861 5860 5859 5859 5858 5857 5857 5857 5856 5856 5855 5855 5854 5853 5852 5851 5850 5849 5847 5846
5860 5861 5862 5862 5862 5863 5864 5864 5864 5864 5864 5864 5864 5864 5864 5864 5864 5863 5863 5862 5862 5862 5861 5860 5859 5858 5857 5857 5856 5856 5855 5854 5854 5853 5852 5851 5850 5849 5848 5847 5846 5844 5843
5860 5860 5861 5861 5862 5863 5863 5864 5864 5864 5864 5864 5864 5864 5863 5863 5863 5862 5862 5861 5861 5860 5859 5859 5858 5857 5856 5856 5855 5854 5853 5852 5851 5851 5850 5849 5848 5847 5845 5844 5843 5841 5839
5859 5859 5860 5861 5861 5862 5862 5863 5863 5863 5863 5863 5863 5863 5863 5862 5862 5861 5861 5860 5859 5859 5858 5857 5856 5855 5854 5854 5853 5852 5851 5850 5849 5848 5847 5846 5845 5843 5842 5841 5839 5837 5835
5857 5858 5859 5859 5860 5861 5861 5862 5862 5862 5863 5862 5862 5862 5862 5861 5861 5860 5859 5859 5858 5857 5856 5856 5854 5853 5852 5851 5850 5850 5848 5847 5846 5845 5844 5842 5841 5840 5838 5837 5835 5833 5831
5855 5856 5857 5858 5858 5859 5860 5860 5861 5861 5861 5861 5861 5860 5860 5859 5859 5858 5857 5857 5856 5855 5854 5853 5852 5851 5850 5849 5848 5847 5845 5844 5843 5842 5840 5839 5837 5836 5834 5832 5830 5828 5826
5853 5854 5855 5856 5857 5857 5858 5858 5859 5859 5859 5859 5859 5858 5858 5857 5857 5856 5855 5855 5854 5853 5852 5851 5850 5849 5848 5846 5845 5844 5842 5841 5839 5838 5837 5835 5833 5831 5829 5827 5825 5822 5820
5851 5852 5853 5854 5854 5855 5855 5856 5856 5857 5857 5857 5857 5856 5856 5855 5854 5854 5853 5852 5851 5850 5849 5848 5847 5846 5845 5843 5842 5841 5839 5838 5836 5835 5833 5831 5829 5826 5824 5822 5819 5817 5814
5849 5849 5850 5851 5851 5852 5853 5853 5853 5854 5854 5854 5854 5853 5853 5852 5851 5851 5850 5849 5848 5847 5846 5845 5844 5843 5841 5840 5838 5837 5835 5833 5832 5830 5828 5826 5824 5821 5819 5816 5813 5811 5808
5846 5846 5847 5848 5849 5849 5850 5850 5850 5851 5851 5851 5850 5850 5849 5849 5848 5847 5846 5846 5845 5844 5842 5841 5840 5839 5837 5836 5834 5833 5831 5829 5827 5825 5823 5821 5818 5816 5813 5809 5807 5804 5800
5842 5843 5844 5844 5845 5846 5846 5847 5847 5847 5847 5847 5846 5846 5846 5845 5844 5843 5843 5842 5841 5839 5838 5837 5836 5834 5833 5831 5829 5828 5826 5824 5822 5820 5817 5815 5813 5810 5806 5803 5799 5796 5792
5838 5839 5840 5841 5841 5842 5842 5843 5843 5843 5843 5843 5842 5842 5841 5841 5840 5839 5838 5837 5836 5835 5834 5833 5831 5829 5828 5826 5824 5822 5820 5818 5816 5814 5811 5809 5806 5803 5800 5796 5792 5788 5784